Regional Weather Roundup
Issued by NWS Upton, NY

Current Version | Previous Version | Text Only | Print | Product List | Glossary On
Versions: 1 2 3 4 5 6 7 8 9 10 11 12 13 14 15 16 17 18 19 20 21 22 23 24 25 26 27 28 29 30 31 32 33 34 35 36 37 38 39 40 41 42 43 44 45 46 47 48 49 50
000 ASUS41 KOKX 011408 RWROKX REGIONAL WEATHER ROUNDUP NATIONAL WEATHER SERVICE NEW YORK NY 1000 AM EDT WED JUL 01 2015 NOTE: "FAIR" INDICATES FEW OR NO CLOUDS BELOW 12,000 FEET WITH NO SIGNIFICANT WEATHER AND/OR OBSTRUCTIONS TO VISIBILITY. NYZ071-072-176-178-NJZ106-104-011500- NEW YORK CITY METRO AREA CITY SKY/WX TMP DP RH WIND PRES REMARKS CENTRAL PARK PTSUNNY 72 66 81 VRB5 29.82S LAGUARDIA APRT PTSUNNY 74 64 71 SW12 29.78S KENNEDY INTL PTSUNNY 74 66 76 SW12 29.81S NEWARK/LIBERTY PTSUNNY 74 66 76 SW15 29.80R BRNX BOT. GARD N/A 73 63 68 SW8 29.79S TETERBORO PTSUNNY 75 64 68 SW8 29.78R $$ NYZ177-179-078>081-011500- LONG ISLAND NEW YORK CITY SKY/WX TMP DP RH WIND PRES REMARKS FARMINGDALE MOSUNNY 75 66 73 SW13G21 29.80S ISLIP MOSUNNY 75 66 73 SW13 29.78S SHIRLEY MOSUNNY 73 67 81 SW9G18 29.81R WESTHAMPTON PTSUNNY 73 67 81 SW15G22 29.82R MONTAUK POINT N/A 71 67 87 S12G20 29.79S $$ NYZ052-065-067-011500- HUDSON VALLEY CITY SKY/WX TMP DP RH WIND PRES REMARKS WHITE PLAINS PTSUNNY 73 67 81 SW3 29.78S NEWBURGH PTSUNNY 70 68 94 SW9 29.78F MONTGOMERY CLOUDY 72 66 81 SW9 29.77R POUGHKEEPSIE PTSUNNY 73 67 81 SW5 29.75F ALBANY LGT RAIN 68 65 90 S10 29.73S $$ NJZ001-105-106-008-010-013-015-019>022-104-011500- NEW JERSEY CITY SKY/WX TMP DP RH WIND PRES REMARKS NEWARK/LIBERTY PTSUNNY 74 66 76 SW15 29.80R TETERBORO PTSUNNY 75 64 68 SW8 29.78R CALDWELL PTSUNNY 73 65 75 VRB5 29.80R MORRISTOWN CLOUDY 77 70 78 W6 29.81R SOMERVILLE PTSUNNY 74 65 73 VRB6 29.79R SUSSEX PTSUNNY 71 64 78 SW8 29.79S ANDOVER N/A 70 64 81 SW7 29.81R TRENTON PTSUNNY 73 66 78 W7 29.81S MILLVILLE MOSUNNY 76 66 71 W12 29.84F ATLANTIC CITY PTSUNNY 78 65 63 SW10 29.84S WRIGHTSTOWN PTSUNNY 74 67 79 SW9 29.80S TOMS RIVER PTSUNNY 75 64 69 W10G17 29.83S BELMAR CLOUDY 72 64 78 W9 29.82R $$ PAZ047>061-062-071-011500- EASTERN PENNSYLVANIA CITY SKY/WX TMP DP RH WIND PRES REMARKS PHILADELPHIA MOSUNNY 75 65 70 W8 29.83S ALLENTOWN MOSUNNY 73 64 73 W9 29.81S SCRANTON CLOUDY 68 61 78 SW10 29.81S $$ CTZ002-004>006-009-010-012-RIZ004-006-007-MAZ004-011-015-011500- SOUTHERN NEW ENGLAND IN CT CITY SKY/WX TMP DP RH WIND PRES REMARKS BRADLEY INTL CLOUDY 68 64 87 W6 29.76S HARTFORD CLOUDY 72 66 81 VRB6 29.76S DANBURY CLOUDY 72 64 76 SW6 29.79F WTRBRY/OXFORD PTSUNNY 73 64 73 SW5 29.81R BRIDGEPORT MOSUNNY 74 67 78 SW10 29.78S MERIDEN PTSUNNY 75 69 81 CALM 29.77S NEW HAVEN PTSUNNY 73 70 90 S8 29.78R CHESTER CLOUDY 72 70 94 S5 29.79S GROTON CLOUDY 69 66 90 SE8 29.78S FOG WILLIMANTIC CLOUDY 70 67 90 S6 29.78R IN RI CITY SKY/WX TMP DP RH WIND PRES REMARKS PROVIDENCE CLOUDY 68 65 90 S12 29.79F BLOCK ISLAND CLOUDY 70 66 88 S12 29.79S WESTERLY CLOUDY 70 67 90 SE10 29.79S IN MA CITY SKY/WX TMP DP RH WIND PRES REMARKS BOSTON LGT RAIN 64 64 100 SE20 29.77F VSB 1/2 WORCESTER FOG 66 64 93 S13 29.79F VSB 1/2 WESTFIELD CLOUDY 67 64 90 NW3 29.77R PROVINCETOWN CLOUDY 64 9 11 E12 29.84F THUNDER NANTUCKET CLOUDY 67 63 87 SE16 29.82F FOG $$ ANZ330-335-338-340-345-350-353-355-011500- COASTAL MARINE OBSERVATIONS STATION/POSITION TIME SKY/WX TEMP WIND PRES VSBY WAVE AIR SEA DIR/SP/G HT/PER (UTC) (F) (DEG/KT/KT) (MB) (MI) (FT/S) NY HARB ENTRANCE 1350 70 70 220/ 12/ 14 1008.9 3/ 7 4S FIRE IS 1303 67 N/A 4/ 5 20S FIRE ISLAND 1350 69 65 220/ 12/ 14 1009.2 4/ 8 GREAT SOUTH BAY 1300 71 74 260/ 14/ 17 N/A 23SW MTP 1350 68 65 230/ 16/ 17 1008.7 4/ 8 HUDSON CANYON NOT AVBL KINGS POINT 1300 71 66 240/ 9/ 12 1008.1 CENTRAL LI SOUND NOT AVBL EASTERN LI SOUND 1300 66 130/ 8/ 10 N/A ROBBINS REEF 1300 70 230/ 8/ 10 1007.7 $$ >>>>>>>>>>>>>>>>>>>>>>>>>>>> KEY <<<<<<<<<<<<<<<<<<<<<<<<<<< > < > SKY/WX - SKY CONDITION/PRESENT WEATHER < > TMP - TEMPERATURE IN FAHRENHEIT < > DP - DEWPOINT IN FAHRENHEIT < > RH - RELATIVE HUMIDITY IN PERCENT < > WIND - DIRECTION AND SPEED IN MPH < > PRES - MEAN SEA LEVEL PRESSURE IN INCHES OF HG < > WCI - WIND CHILL INDEX < > VSB - VISIBILITY IN MILES < > HX - HEAT INDEX < > TC - TEMPERATURE IN CELSIUS < > VRB - VARIABLE WIND DIRECTION < > < >>>>>>>>>>>>>>>>>>>>>>>>>>>> KEY <<<<<<<<<<<<<<<<<<<<<<<<<<<

USA.gov is the U.S. government's official web portal to all federal, state and local government web resources and services.